Weather Roundup
Issued by NWS Chicago, IL

Home | Current Version | Previous Version | Text Only | Print | Product List | Glossary On
Versions: 1 2 3 4 5 6 7 8 9 10 11 12 13 14 15 16 17 18 19 20 21 22 23 24 25 26 27 28 29 30 31 32 33 34 35 36 37 38 39 40 41 42 43 44 45 46 47 48 49 50
000
NZUS59 KLOT 051808
HRRLOT

CHICAGO AREA WEATHER ROUNDUP
NATIONAL WEATHER SERVICE CHICAGO/ROMEOVILLE IL
100 PM CDT THU MAY 05 2016

NOTE: "FAIR" INDICATES FEW OR NO CLOUDS BELOW 12,000 FEET WITH NO
SIGNIFICANT WEATHER AND/OR OBSTRUCTIONS TO VISIBILITY.

* THESE STATIONS ARE NOT UNDER NWS QUALITY CONTROL. THEY ALSO MAY NOT
  REPORT WEATHER SUCH AS PRECIPITATION OR FOG.

ILZ005-006-012>014-019>023-051900-
NORTHEAST ILLINOIS

CITY           SKY/WX    TMP DP  RH WIND       PRES   REMARKS
OHARE          SUNNY     59  41  51 N8        30.00F
6HR MIN TEMP:  42; 6HR MAX TEMP:  60;

MIDWAY         SUNNY     57  41  55 N13G23    30.01F
6HR MIN TEMP:  44; 6HR MAX TEMP:  58;

AURORA         SUNNY     60  46  59 N6        30.01F
6HR MIN TEMP:  42; 6HR MAX TEMP:  61;

LANSING*       SUNNY     50  41  73 NE14G20   30.01F
JOLIET*        SUNNY     62  45  54 N10       29.99F
WAUKEGAN       SUNNY     57  42  57 NE7       30.00F
6HR MIN TEMP:  41; 6HR MAX TEMP:  57;

DUPAGE AIRPORT SUNNY     60  42  51 N10       30.00F
6HR MIN TEMP:  41; 6HR MAX TEMP:  60;

WHEELING       NOT AVBL
KANKAKEE*      SUNNY     60  44  55 N14       29.99S
MORRIS*        SUNNY     62  44  53 CALM      29.99F
LEWIS AIRPORT* SUNNY     60  43  53 N8        30.00F
$$

WIZ051-052-058>065-066-070>072-051900-
SOUTHEAST WISCONSIN

CITY           SKY/WX    TMP DP  RH WIND       PRES   REMARKS
MILWAUKEE      SUNNY     53  39  59 NE12      30.03F
6HR MIN TEMP:  42; 6HR MAX TEMP:  54;

KENOSHA*       SUNNY     59  41  51 N10G16    30.01F
RACINE*        SUNNY     54  39  57 N15       30.03F
BURLINGTON     SUNNY     58  37  45 N7        30.01F
WAUKESHA       SUNNY     57  37  47 W7        30.02F
WEST BEND      SUNNY     59  37  44 W5        30.01F
$$

INZ001>003-010>013-019-020-051900-
NORTHWEST INDIANA

CITY           SKY/WX    TMP DP  RH WIND       PRES   REMARKS
GARY*          PTSUNNY   50  46  87 N12G23    30.03F
MICHIGAN CITY* NOT AVBL
RENSSELAER*    NOT AVBL
VALPARAISO     SUNNY     50  42  74 NW14G22   29.99S
$$

LMZ740>746-051900-
SOUTHERN LAKE MICHIGAN

STATION/POSITION TIME  SKY/WX   TEMP WIND        PRES    VSBY
                                AIR  DIR/SP/G
                 (UTC)          (F)  (DEG/KT/KT) (MB)    (MI)
HARRISON CRIB    1700            43  350/ 21/ 22   N/A
BURNHAM HARBOR   1800            49  360/  8/ 16   N/A
CALUMET HARBOR   1700            45  340/ 14/ 18 1016.3R
BURNS HARBOR     1700            42  350/ 12/ 15 1017.3R
MICHIGAN CITY    1700            43  330/ 14/ 15   N/A
$$

ABBREVIATIONS USED IN REMARKS
   TC - TEMPERATURE IN CELSIUS
  WCI - WIND CHILL INDEX
   HX - HEAT INDEX
  VSB - VISIBILITY
$$



USA.gov is the U.S. government's official web portal to all federal, state and local government web resources and services.